Location: Shenandoah County Park
(38.9356°N, 78.4524°W)
Time: 15:14:32
(UTC-05:00)

Vanguard 2 Rocket - Pass Details

Date: 09 December 2023
Orbit: 555 x 3309 km, 32.9° (Epoch: 03 March)

Event Time Altitude Azimuth Distance (km) Brightness Sun altitude
Rises 21:43:09 0° 277° (W) 7,208 12.0 -55.7°
Reaches altitude 10° 21:52:42 10° 254° (WSW) 5,796 11.2 -57.4°
Maximum altitude 21:58:31 13° 234° (SW) 5,201 10.8 -58.5°
Drops below altitude 10° 22:03:42 10° 214° (SSW) 4,996 10.7 -59.4°
Enters shadow 22:04:53 - 209° (SSW) 5,004 10.6 -59.6°
Sets 22:10:27 0° 187° (S) 5,335 - -60.6°
